Weather History for KP28 - January, 2013

Change the Weather History Date:

Sunday, January 27, 2013

  Actual Average Record
Temperature  
Mean Temperature 58 °F 34 °F  
Max Temperature 74 °F 47 °F 82 °F (2015)
Min Temperature 42 °F 22 °F -6 °F (1963)
Degree Days  
Heating Degree Days 7 31  
Month to date heating degree days 752 856  
Since 1 July heating degree days 2334 2655  
Cooling Degree Days 0 0  
Month to date cooling degree days 0 0  
Year to date cooling degree days 0 0  
Growing Degree Days 8 (Base 50)    
Moisture  
Dew Point 46 °F    
Average Humidity 69    
Maximum Humidity 100    
Minimum Humidity 38    
Precipitation  
Precipitation 0.00 in 0.04 in 0.56 in (1973)
Month to date precipitation 0.56 0.59  
Year to date precipitation 0.56 0.59  
Snow  
Snow 0.00 in 0.20 in - ()
Month to date snowfall T 2.7  
Since 1 July snowfall 1.0 5.6  
Snow Depth 0.00 in    
Sea Level Pressure  
Sea Level Pressure 29.79 in    
Wind  
Wind Speed 13 mph (South)    
Max Wind Speed 25 mph    
Max Gust Speed 34 mph    
T = Trace of Precipitation, MM = Missing Value Source: NWS Daily Summary

Daily Weather History Graph

Daily Weather History Graph

Search for Another Location

Airport or City:

Trip Planner

Search our weather history database for the weather conditions in past years. The results will help you decide how hot, cold, wet, or windy it might be!

Date:

Astronomy

Jan. 27, 2013 Rise Set
Actual Time 7:40 AM CST 5:53 PM CST
Civil Twilight 7:13 AM CST 6:21 PM CST
Nautical Twilight 6:41 AM CST 6:52 PM CST
Astronomical Twilight 6:10 AM CST 7:23 PM CST
Moon 6:46 PM CST (1/27) 7:36 AM CST (1/27)
Length of Visible Light 11h 08m
Length of Day
10h 12m
Full, 100% of the Moon is Illuminated
Jan 27
Full
Feb 3
Last Quarter
Feb 10
New
Feb 17
First Quarter
Feb 25
Full

Hourly Weather History & Observations

Time (CST) Temp. Windchill Dew Point Humidity Pressure Visibility Wind Dir Wind Speed Gust Speed Precip Events Conditions
12:56 AM 43.0 °F 36.0 °F 42.1 °F 97% 29.97 in - SSE 13.8 mph - N/A   Unknown
1:56 AM 42.1 °F 36.1 °F 42.1 °F 100% 29.94 in - SSE 10.4 mph 18.4 mph N/A   Unknown
2:56 AM 42.1 °F 35.7 °F 42.1 °F 100% 29.91 in - SSE 11.5 mph 18.4 mph N/A   Unknown
3:56 AM 42.1 °F 34.9 °F 42.1 °F 100% 29.87 in - SSE 13.8 mph 20.7 mph N/A   Unknown
4:56 AM 43.0 °F 37.2 °F 43.0 °F 100% 29.86 in - SSE 10.4 mph 17.3 mph N/A   Unknown
5:56 AM 44.1 °F 38.1 °F 44.1 °F 100% 29.84 in - SSE 11.5 mph 20.7 mph N/A   Unknown
6:56 AM 45.0 °F 39.7 °F 45.0 °F 100% 29.82 in - SSE 10.4 mph - N/A   Unknown
7:56 AM 46.9 °F - 46.9 °F 100% 29.81 in - SSE 10.4 mph - N/A   Unknown
8:56 AM 51.1 °F - 51.1 °F 100% 29.79 in - South 16.1 mph 26.5 mph N/A   Unknown
9:56 AM 52.0 °F - 52.0 °F 100% 29.80 in - South 17.3 mph 26.5 mph 0.01 in   Unknown
10:56 AM 55.0 °F - 52.0 °F 89% 29.80 in - South 16.1 mph 24.2 mph N/A   Unknown
11:56 AM 57.9 °F - 52.0 °F 81% 29.77 in - South 20.7 mph 28.8 mph N/A   Unknown
12:56 PM 63.0 °F - 53.1 °F 70% 29.74 in - South 15.0 mph 24.2 mph N/A   Unknown
1:56 PM 66.9 °F - 51.1 °F 57% 29.69 in - SSW 21.9 mph 27.6 mph N/A   Unknown
2:56 PM 70.0 °F - 50.0 °F 49% 29.68 in - South 17.3 mph - N/A   Unknown
3:56 PM 73.9 °F - 46.0 °F 37% 29.66 in - SSW 18.4 mph 28.8 mph N/A   Unknown
4:56 PM 73.0 °F - 46.9 °F 39% 29.66 in - South 17.3 mph - N/A   Unknown
5:56 PM 68.0 °F - 48.9 °F 50% 29.69 in - South 9.2 mph 18.4 mph N/A   Unknown
6:56 PM 64.0 °F - 52.0 °F 65% 29.73 in - Variable 6.9 mph - N/A   Unknown
7:56 PM 64.0 °F - 51.1 °F 63% 29.75 in - SSW 12.7 mph - N/A   Unknown
8:56 PM 52.0 °F - 42.1 °F 69% 29.77 in - North 5.8 mph - N/A   Unknown
9:56 PM 48.0 °F - 41.0 °F 77% 29.77 in - North 6.9 mph - N/A   Unknown
10:56 PM 45.0 °F 41.8 °F 39.9 °F 82% 29.78 in - North 5.8 mph - N/A   Unknown
11:56 PM 42.1 °F 39.2 °F 37.9 °F 85% 29.78 in - North 4.6 mph - N/A   Unknown